EW9136 Weather Reports


time (UTC)temp
F
wind
direction
speed
knots
gust
knots
rain 1hr
in
rain 24hr
in
rain mn
in
humidity
%
barometer
mb
20260508121549 59 142 4.3 10.4 0.00 0.00 0.00 77 1017.4
20260508120053 58 163 8.7 15.6 0.00 0.00 0.00 76 1017.4
20260508114551 58 156 7.8 12.2 0.00 0.00 0.00 78 1017.4
20260508113045 58 159 5.2 11.3 0.00 0.00 0.00 78 1017.4
20260508111545 57 121 7.0 11.3 0.00 0.00 0.00 79 1017.4
20260508110045 58 178 7.8 12.2 0.00 0.00 0.00 79 1017.3
20260508104542 58 150 4.3 8.7 0.00 0.00 0.00 80 1017.3
20260508103047 58 102 4.3 12.2 0.00 0.00 0.00 78 1017.3
20260508101539 58 183 5.2 8.7 0.00 0.00 0.00 81 1017.3
20260508100048 56 140 3.5 8.7 0.00 0.00 0.00 83 1017.4
20260508094531 54 180 3.5 8.7 0.00 0.00 0.00 85 1017.3
20260508093034 53 149 0.9 9.6 0.00 0.00 0.00 88 1017.3
20260508091523 52 198 1.7 4.3 0.00 0.00 0.00 88 1017.4
20260508090012 51 148 0.0 3.5 0.00 0.00 0.00 89 1017.4
20260508084508 51 152 0.9 4.3 0.00 0.00 0.00 89 1017.4
20260508083005 51 252 3.5 7.0 0.00 0.00 0.00 88 1017.4
20260508081502 50 167 4.3 12.2 0.00 0.00 0.00 89 1017.0
20260508080101 50 73 0.9 5.2 0.00 0.00 0.00 90 1016.9
20260508074602 50 63 0.9 7.0 0.00 0.00 0.00 90 1016.8
20260508073054 49 72 1.7 7.0 0.00 0.00 0.00 90 1016.8
20260508071549 49 176 4.3 11.3 0.00 0.00 0.00 91 1016.6
20260508070045 48 166 7.0 12.2 0.00 0.00 0.00 91 1016.4
20260508064542 48 162 7.0 11.3 0.00 0.00 0.00 92 1016.3
20260508063042 47 121 7.8 10.4 0.00 0.00 0.00 92 1016.3
20260508061543 47 174 7.8 12.2 0.00 0.00 0.00 92 1016.2
20260508060054 47 152 6.1 12.2 0.00 0.00 0.00 92 1016.1
20260508054611 47 173 7.8 13.0 0.00 0.00 0.00 91 1016.0
20260508053048 47 177 5.2 10.4 0.00 0.00 0.00 91 1015.9
20260508051535 47 136 7.0 12.2 0.00 0.00 0.00 91 1015.9
20260508050037 47 147 7.0 11.3 0.00 0.00 0.00 90 1015.8
20260508044534 47 180 4.3 7.0 0.00 0.00 0.00 90 1015.7
20260508043036 47 154 3.5 9.6 0.00 0.00 0.00 90 1015.6
20260508041532 47 158 4.3 8.7 0.00 0.00 0.00 90 1015.7
20260508040033 47 165 5.2 10.4 0.00 0.00 0.00 90 1015.5
20260508034537 47 158 4.3 13.0 0.00 0.00 0.00 89 1015.4
20260508033034 47 182 4.3 13.0 0.00 0.00 0.00 89 1015.5
20260508031534 48 158 3.5 9.6 0.00 0.00 0.00 88 1015.6
20260508030029 48 152 4.3 11.3 0.00 0.00 0.00 87 1015.6
20260508024528 48 169 4.3 13.0 0.00 0.00 0.00 86 1015.6
20260508023027 48 187 8.7 16.5 0.00 0.00 0.00 86 1015.5
20260508021527 48 158 9.6 15.6 0.00 0.00 0.00 86 1015.4
20260508020024 48 140 10.4 14.8 0.00 0.00 0.00 87 1015.4
20260508014527 48 165 7.8 16.5 0.00 0.00 0.00 87 1015.4
20260508013017 48 161 9.6 13.9 0.00 0.00 0.00 88 1015.4
20260508011517 47 149 8.7 13.9 0.00 0.00 0.00 89 1015.4
20260508010026 47 129 9.6 15.6 0.00 0.00 0.00 89 1015.5
20260508004523 47 129 9.6 14.8 0.00 0.00 0.00 90 1015.6
20260508003012 47 169 8.7 15.6 0.00 0.00 0.00 90 1015.6
20260508001508 47 142 7.8 13.9 0.00 0.00 0.00 90 1015.7
20260508000005 47 131 9.6 15.6 0.00 0.00 0.00 90 1015.8
20260507234505 47 153 7.8 12.2 0.00 0.00 0.00 90 1015.8
20260507233006 48 144 8.7 13.0 0.00 0.00 0.00 90 1015.8
20260507231505 48 159 8.7 16.5 0.00 0.00 0.00 90 1015.8
20260507230004 48 127 8.7 15.6 0.00 0.00 0.00 90 1015.7
20260507224507 47 154 9.6 16.5 0.00 0.00 0.00 90 1015.7
20260507223003 47 134 7.8 13.9 0.00 0.00 0.00 90 1015.7
20260507221502 47 156 9.6 14.8 0.00 0.00 0.00 89 1015.8
20260507220004 47 154 10.4 16.5 0.00 0.00 0.00 89 1015.8
20260507214501 47 142 9.6 17.4 0.00 0.00 0.00 89 1015.8
20260507213002 47 137 10.4 18.2 0.00 0.00 0.00 89 1015.8
20260507211606 47 132 10.4 17.4 0.00 0.00 0.00 88 1015.8
20260507210104 47 173 10.4 18.2 0.00 0.00 0.00 87 1015.7
20260507204601 48 170 9.6 15.6 0.00 0.00 0.00 87 1015.8
20260507203103 48 153 7.8 16.5 0.00 0.00 0.00 86 1015.7
20260507201557 48 175 8.7 15.6 0.00 0.00 0.00 85 1015.6
20260507200058 49 136 7.0 13.0 0.00 0.00 0.00 84 1015.4
20260507194556 49 124 8.7 14.8 0.00 0.00 0.00 85 1015.2
20260507193056 50 150 9.6 15.6 0.00 0.00 0.00 85 1015.1
20260507191558 50 148 6.1 13.0 0.00 0.00 0.00 85 1015.1
20260507190055 50 165 7.8 13.9 0.00 0.00 0.00 85 1015.0
20260507184657 51 174 7.8 14.8 0.00 0.00 0.00 84 1014.9
20260507183054 51 136 6.1 13.0 0.00 0.00 0.00 84 1014.9
20260507181554 51 140 5.2 12.2 0.00 0.00 0.00 84 1014.8
20260507180058 51 144 7.0 12.2 0.00 0.00 0.00 84 1014.9
20260507174603 51 113 6.1 14.8 0.00 0.00 0.00 84 1014.9
20260507173051 51 171 7.0 13.9 0.00 0.00 0.00 83 1014.9
20260507171603 51 126 8.7 14.8 0.00 0.00 0.00 83 1014.9
20260507170048 52 120 7.8 13.0 0.00 0.00 0.00 82 1015.0
20260507164550 52 167 8.7 13.9 0.00 0.00 0.00 82 1015.2
20260507163050 52 114 7.8 13.0 0.00 0.00 0.00 82 1015.2
20260507161547 52 138 6.1 12.2 0.00 0.00 0.00 83 1015.2
20260507160051 51 149 4.3 11.3 0.00 0.00 0.00 82 1015.3
20260507154544 51 113 7.0 13.0 0.00 0.00 0.00 82 1015.3
20260507153046 51 143 7.8 13.9 0.00 0.00 0.00 81 1015.2
20260507151643 52 121 7.8 15.6 0.00 0.00 0.00 81 1015.3
20260507150041 53 139 6.1 13.9 0.00 0.00 0.00 81 1015.3
20260507144540 53 176 7.0 12.2 0.00 0.00 0.00 79 1015.3
20260507143043 54 170 6.1 15.6 0.00 0.00 0.00 79 1015.4
20260507141543 54 99 7.8 12.2 0.00 0.00 0.00 80 1015.5
20260507140038 54 131 4.3 14.8 0.00 0.00 0.00 79 1015.6
20260507134536 54 142 5.2 12.2 0.00 0.00 0.00 78 1015.6
20260507133036 54 138 5.2 10.4 0.00 0.00 0.00 78 1015.7
20260507131537 55 151 5.2 9.6 0.00 0.00 0.00 75 1015.7
20260507130040 56 192 6.1 10.4 0.00 0.00 0.00 74 1015.6
20260507124547 57 139 7.0 10.4 0.00 0.00 0.00 65 1015.6
20260507123031 56 168 6.1 13.9 0.00 0.00 0.00 67 1015.7